Wind_Speed
1 1 1 2 2 3 3 3 3 2 2 3 3 3 2 3 3 3 3 4 4 4 6 6 6 6 6 6 7 7 8 8 8 7 6 6 6 6 6 6 5 5 5
2 2 2 2 3 3 4 4 4 4 4 4 4 3 4 4 5 5 5 5 5 6 7 7 7 8 7 7 8 8 8 9 9 8 7 8 8 8 7 7 6 6 6
2 2 3 3 4 4 4 5 5 5 5 5 5 5 5 5 6 6 6 6 7 7 8 8 8 9 9 9 9 9 9 10 10 9 9 8 8 8 8 7 7 7 7
3 3 3 4 4 5 5 6 6 6 6 6 7 7 7 6 7 8 8 7 7 8 8 8 9 9 9 9 10 10 10 10 10 9 8 9 9 8 8 8 8 8 9
2 3 3 3 4 5 5 6 6 7 7 7 7 7 7 7 8 8 7 7 8 8 8 8 8 8 9 9 9 9 9 10 10 9 9 8 9 9 9 9 9 9 10
3 4 4 4 3 4 5 5 5 5 6 6 7 7 7 7 8 8 8 8 8 8 8 8 9 9 9 10 9 10 10 10 10 10 9 9 10 10 10 10 10 11 11
4 4 5 4 4 4 4 5 5 5 5 6 7 8 8 8 8 8 8 9 9 8 8 9 9 9 10 10 10 10 11 11 10 10 10 11 11 11 11 12 12 12 12
5 5 5 6 5 5 5 6 5 6 6 7 8 9 9 9 9 9 8 9 9 9 9 10 10 10 10 11 11 11 12 11 11 11 12 12 12 11 12 13 13 14 13
6 6 6 6 6 6 6 6 6 7 7 7 8 9 9 9 10 9 9 10 11 10 10 11 11 12 12 12 12 12 12 12 12 12 13 13 13 13 14 14 13 12 14
6 7 7 7 7 7 7 7 7 8 9 8 9 9 10 10 10 10 11 11 12 12 12 12 12 12 12 12 13 13 13 13 13 14 14 14 14 14 14 13 14 14 14
7 8 8 8 9 9 9 10 10 10 10 10 10 10 10 11 11 11 12 12 13 14 14 14 13 14 13 14 13 14 14 14 14 15 15 15 14 14 14 14 15 15 16
9 9 10 10 11 11 11 11 11 11 12 12 11 11 11 11 12 13 13 14 14 15 16 16 15 15 15 15 16 16 16 16 16 16 15 15 14 15 16 16 17 17 18
10 10 11 11 11 12 12 13 13 13 12 12 12 12 12 13 13 14 15 16 16 16 16 17 17 17 16 16 16 17 17 17 17 17 16 16 16 16 17 17 18 18 18
12 12 13 13 13 14 14 14 15 15 14 14 14 14 14 14 15 15 16 17 17 17 17 18 18 18 18 18 18 18 18 18 18 17 17 17 18 18 18 18 18 18 19
14 14 14 14 15 15 16 16 16 16 16 16 16 16 16 16 17 17 17 18 18 18 18 18 18 19 20 19 19 19 19 19 19 19 18 18 19 19 19 18 18 19 20
17 17 17 17 17 17 16 16 16 16 16 17 17 18 18 18 19 19 19 20 20 20 20 19 18 19 20 20 21 21 21 21 20 20 20 20 20 20 21 21 20 21 20
20 19 19 19 19 19 18 18 17 17 18 18 18 19 19 19 20 20 20 21 22 22 22 21 21 21 21 22 22 22 22 21 21 21 21 22 22 23 23 23 23 23 22
21 21 21 21 20 20 20 20 20 20 20 20 21 21 21 21 21 22 22 22 23 23 24 23 22 22 22 23 24 24 23 23 23 22 22 22 22 23 23 23 23 24 23
21 22 22 22 22 22 22 22 22 22 22 23 23 23 23 23 23 22 22 23 24 24 25 24 24 24 24 25 25 26 25 25 25 24 23 23 23 24 24 24 24 24 24
23 23 23 23 23 23 23 24 25 24 25 24 24 24 24 23 23 23 24 24 25 25 26 26 26 26 25 25 26 25 25 25 25 25 25 25 25 24 24 24 25 25 25
24 25 24 24 24 24 25 25 25 26 25 25 24 24 24 24 24 25 25 26 26 26 27 27 26 27 27 27 27 27 26 26 26 26 26 26 25 25 24 25 25 26 26
25 26 25 26 26 26 26 26 26 26 26 26 26 26 26 25 26 26 27 27 27 27 27 27 27 27 28 29 29 29 28 28 27 27 26 26 26 26 26 26 26 27 27
26 26 27 27 27 27 27 27 27 27 27 27 27 27 27 27 27 28 28 29 28 28 28 28 28 29 29 29 29 29 29 29 28 27 27 27 27 27 27 27 27 28 28
27 28 28 28 28 28 29 29 28 28 28 28 28 28 29 29 30 30 30 29 30 30 30 30 30 30 30 30 29 29 29 28 28 27 27 27 28 28 28 29 29 29 28
28 28 29 29 29 29 29 29 29 29 29 29 29 29 30 31 31 31 31 31 31 31 32 32 32 31 31 31 30 29 28 28 28 27 27 28 28 28 28 29 28 28 28
29 29 29 29 30 30 30 30 29 30 31 31 31 32 32 32 32 33 33 32 32 32 33 33 33 32 31 30 29 29 29 28 28 28 28 29 28 28 28 28 28 27 27
Wind_Direction
226 257 272 253 237 237 240 251 261 272 279 286 295 303 309 311 311 317 298 292 298 304 313 312 311 313 319 322 326 328 328 321 315 304 307 310 306 304 304 299 287 288 291
254 269 270 256 250 249 248 259 268 271 275 282 285 290 291 297 301 304 296 299 298 304 310 312 307 303 307 312 315 319 321 317 310 300 304 308 301 296 293 293 284 279 285
289 283 275 263 256 256 261 267 272 272 275 283 286 286 287 290 297 303 299 292 296 304 307 305 310 307 302 305 307 311 313 311 308 300 299 301 301 293 290 284 286 280 281
306 299 289 281 274 265 263 270 276 279 278 283 287 286 288 288 294 299 297 298 298 299 301 301 302 302 299 302 307 311 309 308 306 301 302 299 295 291 289 284 282 282 279
314 313 309 302 289 278 273 274 278 278 276 279 284 287 289 292 295 296 298 301 298 299 296 298 304 307 303 303 308 310 310 308 305 303 298 299 296 291 287 286 282 282 282
309 307 315 312 301 294 292 288 287 283 283 287 290 293 297 302 301 300 300 300 302 301 299 300 306 308 308 307 306 309 309 309 308 305 297 297 294 295 293 293 289 285 283
314 310 320 315 306 304 306 304 292 287 288 290 294 295 294 301 300 302 304 302 304 302 300 301 305 306 307 307 306 309 306 304 304 301 296 293 292 292 291 291 291 288 286
316 309 307 310 312 306 302 301 301 295 293 294 294 291 289 293 296 298 298 297 300 303 300 298 302 303 303 304 308 308 304 303 300 297 293 291 291 292 290 290 287 287 286
311 307 304 300 298 296 298 303 306 306 306 305 298 290 290 293 291 290 295 297 297 301 304 304 305 305 306 306 306 306 304 301 298 296 293 290 290 290 288 288 292 289 287
299 300 302 300 296 292 292 296 300 300 301 303 299 294 292 292 297 294 294 296 298 299 300 303 306 309 310 309 306 305 303 298 297 296 293 291 291 291 289 288 286 288 287
300 301 297 294 295 295 295 295 293 296 298 298 296 295 295 294 295 295 296 296 298 299 299 301 302 304 306 306 304 301 300 298 299 298 295 293 291 291 289 286 286 287 288
297 300 300 296 296 296 297 295 295 295 297 296 295 295 295 293 293 292 293 295 297 299 301 300 300 301 301 301 302 302 298 297 300 301 298 296 292 291 290 290 289 289 289
298 299 299 296 296 295 296 295 295 296 298 296 293 293 295 292 291 290 288 289 292 296 298 300 300 298 298 298 300 299 298 299 301 300 298 297 296 294 292 291 292 289 288
291 293 296 294 292 291 292 294 293 296 298 295 292 292 293 293 292 293 291 288 288 291 295 296 297 298 297 297 299 297 297 298 299 297 296 295 295 295 294 292 290 290 289
289 289 291 291 290 290 291 291 290 293 294 295 291 290 288 290 290 291 291 291 291 291 292 292 293 295 297 296 298 297 298 298 295 295 293 292 293 294 293 293 291 290 290
284 286 287 288 288 289 290 290 289 289 290 291 289 289 288 287 288 288 288 287 288 290 291 292 292 293 294 296 296 296 296 296 293 292 292 291 290 289 291 292 291 290 291
281 282 283 285 286 288 289 289 287 288 289 289 288 289 291 287 286 287 286 286 286 287 288 290 291 291 292 294 295 296 294 295 294 291 290 287 286 288 290 290 289 288 287
279 279 281 282 285 288 288 287 286 287 287 288 289 288 288 288 286 286 285 285 286 286 287 288 289 289 291 293 295 296 295 292 290 289 289 289 289 289 290 290 288 288 287
280 280 280 281 283 284 285 286 287 286 286 288 288 287 286 287 288 289 288 288 287 287 286 287 288 289 290 292 293 295 295 293 288 288 288 288 287 288 287 288 287 287 288
279 281 280 280 281 282 283 285 286 287 285 285 286 286 286 286 287 289 289 290 289 287 287 288 288 289 290 292 295 295 294 293 290 288 287 286 286 286 285 285 285 286 287
280 281 281 281 283 284 284 285 287 289 285 283 285 286 286 286 287 288 290 291 290 290 290 291 290 290 290 290 292 293 292 292 291 289 287 286 287 286 286 285 286 287 287
282 282 282 283 284 285 284 285 287 289 287 286 286 285 283 284 286 288 289 290 291 291 292 291 290 290 290 290 291 291 290 291 290 288 286 286 287 287 287 286 287 288 288
281 282 284 285 284 284 283 284 285 286 286 285 286 286 284 285 287 288 289 289 290 291 291 290 289 290 291 292 290 290 289 288 288 287 285 284 285 286 286 285 287 288 286
280 281 283 283 284 283 283 282 280 281 282 282 283 284 284 284 286 288 288 289 288 289 290 290 290 290 289 290 290 290 289 289 288 286 285 284 283 284 286 288 288 286 283
280 281 282 283 283 283 282 281 279 279 280 281 283 284 285 285 286 287 287 288 288 288 289 290 289 289 288 288 288 288 289 288 287 287 284 284 285 285 285 287 286 284 282
281 282 282 282 282 283 282 281 280 279 281 281 282 284 285 286 287 289 289 287 287 288 287 288 288 288 287 287 287 288 288 287 287 287 286 285 285 286 286 286 286 285 283
Height
5898 5899 5899 5900 5900 5901 5902 5902 5903 5903 5903 5904 5904 5903 5904 5903 5904 5904 5904 5904 5904 5904 5904 5904 5903 5903 5903 5902 5902 5901 5900 5900 5899 5899 5899 5898 5898 5898 5897 5897 5897 5897 5897
5898 5899 5899 5900 5900 5901 5901 5902 5902 5903 5903 5903 5903 5903 5903 5903 5903 5903 5903 5903 5903 5903 5903 5903 5902 5902 5902 5901 5901 5900 5899 5898 5898 5897 5897 5897 5897 5896 5896 5895 5895 5895 5895
5898 5899 5899 5900 5900 5900 5901 5901 5902 5902 5903 5903 5903 5903 5903 5903 5903 5903 5902 5902 5903 5902 5902 5901 5901 5901 5900 5900 5899 5898 5898 5897 5896 5896 5895 5895 5895 5894 5894 5894 5893 5893 5893
5898 5899 5899 5899 5899 5899 5900 5901 5901 5901 5902 5902 5902 5902 5902 5902 5902 5901 5901 5901 5901 5901 5900 5900 5899 5899 5898 5898 5897 5897 5896 5895 5895 5894 5894 5893 5893 5893 5892 5892 5892 5891 5891
5899 5899 5899 5899 5899 5899 5899 5900 5900 5900 5901 5901 5901 5901 5901 5901 5900 5900 5900 5900 5899 5899 5899 5898 5898 5897 5897 5896 5895 5895 5894 5894 5893 5892 5892 5891 5891 5891 5890 5890 5889 5889 5889
5899 5899 5899 5899 5899 5899 5899 5899 5899 5899 5899 5900 5900 5900 5900 5899 5899 5899 5899 5898 5898 5897 5897 5896 5896 5895 5895 5894 5893 5893 5892 5892 5891 5890 5890 5889 5889 5888 5888 5887 5887 5886 5886
5898 5899 5899 5898 5898 5898 5898 5898 5898 5898 5899 5899 5899 5899 5899 5898 5898 5897 5897 5897 5896 5896 5895 5895 5894 5894 5893 5892 5892 5891 5890 5889 5889 5888 5888 5887 5887 5886 5885 5885 5884 5884 5883
5898 5898 5898 5898 5898 5898 5898 5897 5897 5897 5897 5897 5897 5897 5897 5897 5896 5896 5895 5895 5895 5894 5893 5893 5892 5892 5891 5890 5889 5888 5888 5887 5886 5886 5885 5885 5884 5883 5882 5882 5881 5881 5880
5897 5897 5897 5897 5897 5897 5897 5896 5896 5896 5895 5895 5895 5895 5894 5895 5894 5894 5894 5893 5893 5892 5891 5890 5890 5889 5889 5888 5887 5886 5885 5884 5883 5883 5882 5881 5880 5880 5879 5879 5878 5877 5877
5896 5896 5896 5896 5896 5895 5895 5895 5895 5894 5894 5893 5893 5893 5893 5892 5892 5892 5892 5891 5890 5890 5889 5888 5887 5886 5886 5885 5884 5883 5882 5881 5880 5879 5878 5877 5877 5876 5875 5875 5874 5874 5873
5895 5894 5894 5894 5894 5894 5893 5893 5893 5892 5892 5891 5891 5890 5890 5890 5889 5889 5889 5888 5888 5887 5886 5886 5885 5884 5883 5882 5880 5879 5879 5878 5877 5876 5875 5874 5873 5872 5872 5871 5870 5870 5869
5893 5893 5892 5892 5892 5891 5891 5891 5890 5890 5889 5889 5888 5888 5887 5887 5887 5886 5886 5886 5885 5884 5883 5882 5881 5881 5880 5879 5877 5876 5875 5874 5873 5872 5871 5870 5869 5869 5868 5867 5866 5865 5865
5891 5890 5890 5890 5889 5889 5889 5888 5888 5887 5887 5886 5885 5885 5884 5884 5884 5883 5883 5882 5882 5881 5880 5879 5877 5877 5876 5875 5874 5873 5871 5870 5869 5868 5867 5866 5865 5864 5864 5863 5862 5861 5860
5888 5888 5888 5887 5887 5886 5886 5885 5885 5884 5883 5883 5882 5882 5881 5880 5880 5879 5879 5878 5878 5877 5876 5875 5874 5872 5871 5871 5869 5868 5867 5866 5865 5864 5863 5862 5861 5860 5859 5858 5857 5856 5855
5885 5885 5884 5884 5884 5883 5882 5882 5881 5880 5880 5879 5879 5878 5877 5877 5876 5875 5874 5874 5873 5872 5872 5871 5870 5868 5867 5866 5864 5863 5862 5861 5860 5859 5858 5857 5856 5855 5854 5853 5852 5851 5850
5882 5881 5881 5880 5880 5879 5878 5878 5877 5877 5876 5875 5874 5874 5873 5872 5872 5871 5870 5868 5867 5867 5866 5866 5865 5863 5862 5860 5859 5858 5856 5855 5854 5853 5852 5851 5851 5849 5848 5847 5846 5845 5844
5877 5877 5877 5876 5875 5874 5874 5873 5873 5872 5872 5871 5870 5869 5868 5867 5867 5866 5864 5863 5862 5861 5860 5860 5859 5858 5856 5855 5854 5852 5851 5850 5848 5847 5847 5846 5845 5843 5842 5841 5840 5839 5838
5872 5872 5871 5871 5871 5870 5870 5869 5868 5867 5867 5866 5865 5864 5863 5861 5861 5860 5858 5858 5857 5856 5855 5854 5853 5851 5850 5849 5847 5846 5844 5843 5842 5842 5840 5839 5838 5837 5836 5834 5833 5832 5831
5867 5866 5866 5865 5865 5865 5864 5864 5863 5862 5861 5860 5859 5858 5857 5855 5854 5853 5852 5851 5851 5850 5848 5847 5846 5845 5844 5843 5841 5839 5837 5836 5835 5834 5833 5832 5831 5830 5829 5828 5827 5826 5824
5861 5860 5859 5859 5859 5858 5858 5858 5856 5856 5855 5854 5852 5852 5851 5849 5848 5847 5846 5845 5844 5843 5842 5840 5840 5839 5837 5836 5834 5832 5831 5829 5828 5826 5825 5824 5824 5823 5821 5821 5820 5819 5818
5854 5854 5853 5853 5852 5851 5851 5850 5850 5849 5847 5846 5845 5845 5844 5843 5842 5841 5840 5839 5837 5836 5835 5833 5832 5831 5830 5828 5827 5825 5823 5822 5820 5819 5818 5817 5816 5815 5814 5813 5812 5811 5810
5848 5847 5846 5846 5845 5845 5844 5844 5843 5842 5841 5840 5839 5838 5838 5837 5836 5834 5833 5831 5830 5829 5828 5826 5825 5823 5822 5820 5819 5817 5816 5814 5813 5811 5810 5809 5808 5807 5806 5805 5805 5804 5802
5841 5840 5839 5839 5838 5837 5837 5836 5835 5834 5834 5833 5832 5832 5831 5830 5829 5827 5826 5824 5823 5822 5821 5819 5817 5815 5813 5812 5810 5809 5807 5806 5804 5803 5802 5801 5801 5800 5799 5798 5797 5796 5794
5833 5833 5832 5831 5830 5829 5829 5828 5828 5827 5826 5826 5825 5824 5824 5823 5821 5819 5818 5817 5816 5814 5813 5811 5809 5807 5806 5804 5802 5801 5799 5797 5796 5795 5794 5793 5793 5792 5791 5790 5789 5787 5786
5825 5825 5824 5823 5823 5821 5821 5820 5820 5819 5819 5818 5817 5816 5815 5815 5813 5812 5810 5809 5808 5806 5804 5803 5801 5799 5798 5796 5794 5793 5791 5790 5788 5787 5786 5785 5785 5784 5783 5782 5780 5779 5777
5817 5816 5816 5815 5814 5814 5813 5812 5811 5811 5810 5810 5809 5808 5807 5806 5805 5803 5802 5800 5799 5798 5796 5794 5792 5791 5789 5787 5786 5784 5783 5782 5781 5780 5778 5777 5777 5776 5775 5773 5772 5770 5769